Regional Weather Roundup
Issued by NWS

Home | Current Version | Previous Version | Graphics & Text | Print | Product List | Glossary On
Versions: 1 2 3 4 5 6 7 8 9 10 11 12 13 14 15 16 17 18 19 20 21 22 23 24 25 26 27 28 29 30 31 32 33 34 35 36 37 38 39 40 41 42 43 44 45 46 47 48 49 50
000
ASUS43 KBIS 240202
RWRND

NORTH DAKOTA REGIONAL WEATHER ROUNDUP
NATIONAL WEATHER SERVICE BISMARCK ND
800 PM CST THU FEB 23 2017

NOTE: "FAIR" INDICATES FEW OR NO CLOUDS BELOW 12,000 FEET WITH NO
SIGNIFICANT WEATHER AND/OR OBSTRUCTIONS TO VISIBILITY.


NDZ001>003-009>011-017-240300-
NORTHWEST NORTH DAKOTA

CITY           SKY/WX    TMP DP  RH WIND       PRES   REMARKS
WILLISTON      FAIR      17  11  77 NE6       30.13R WCI   9
MINOT          FAIR      21  16  81 CALM      30.12S
MINOT AFB      CLEAR     17  13  84 NW5       30.12S WCI   9
$$

NDZ018>021-031>035-040>046-240300-
SOUTHWEST NORTH DAKOTA

CITY           SKY/WX    TMP DP  RH WIND       PRES   REMARKS
BISMARCK       FAIR      23  16  74 N12       30.11R WCI  12
DICKINSON      CLOUDY    20  14  77 NE13      30.06R WCI   7
GARRISON         N/A     15  10  80 N3        30.12R
HETTINGER ARPT CLOUDY    24  23  96 N12       30.04R FOG     WCI  13
$$

NDZ004>008-012>016-024-026-027-054-240300-
NORTHEAST NORTH DAKOTA

CITY           SKY/WX    TMP DP  RH WIND       PRES   REMARKS
GRAND FORKS    MOCLDY    23  12  62 N16       30.13S WCI  10
GRND FRKS AFB  PTCLDY    21  15  76 NE10      30.13S WCI  10
DEVILS LAKE    FAIR      18  15  88 N6        30.12R WCI  10
$$

NDZ022-023-025-028>030-036>039-047>053-240300-
SOUTHEAST NORTH DAKOTA

CITY           SKY/WX    TMP DP  RH WIND       PRES   REMARKS
FARGO          CLOUDY    24  15  68 N22       30.09S WCI   9
JAMESTOWN      CLOUDY    24  20  84 NE13      30.06S WCI  12
$$




USA.gov is the U.S. government's official web portal to all federal, state and local government web resources and services.